Probability
0 0 0 0 0 0 0 0 0 0 0 0 0 0 0 0 0 0 0 0 0 0 0 0 0 0 0 0 0 0 0 0 0 0 0 0 0 0 0 0 0 0 0 0
0 0 0 0 0 0 0 0 0 0 0 0 0 0 0 0 0 0 0 0 0 0 0 0 0 0 0 0 0 0 0 0 0 0 0 0 0 0 0 0 0 0 0 0
0 0 0 0 0 0 0 0 0 0 0 0 0 0 0 0 0 0 0 0 0 0 0 0 0 0 0 0 0 0 0 0 0 0 0 0 0 0 0 0 0 0 0 0
0 0 0 0 0 0 0 0 0 0 0 0 0 0 0 0 0 0 0 0 0 0 0 0 0 0 0 0 0 0 0 0 0 0 0 0 0 0 0 0 0 0 0 0
0 0 0 0 0 0 0 0 0 0 0 0 0 0 0 0 0 0 0 0 0 0 0 0 0 0 0 0 0 0 0 0 0 0 0 0 0 0 0 0 0 0 0 0
0 0 0 0 0 0 0 0 0 0 0 0 0 0 0 0 0 0 0 0 0 0 0 0 0 0 0 0 0 0 0 0 0 0 0 0 0 0 0 0 0 0 0 0
0 0 0 0 0 0 0 0 0 0 0 0 0 0 0 0 0 0 0 0 0 0 0 0 0 0 0 0 0 0 0 0 0 0 0 0 0 0 0 0 0 0 0 0
0 0 0 0 0 0 0 0 0 0 0 0 0 0 0 0 0 0 0 0 0 0 0 0 0 0 0 0 0 0 0 0 0 0 0 0 0 0 0 0 0 0 0 0
0 0 0 0 0 0 0 0 0 0 0 0 0 0 0 0 0 0 0 0 0 0 0 0 0 0 0 0 0 0 0 0 0 0 0 0 0 0 0 0 0 0 0 0
0 0 0 0 0 0 0 0 0 0 0 0 0 0 0 0 0 0 0 0 0 0 0 0 0 0 0 0 0 0 0 0 0 0 0 0 0 0 0 0 0 0 0 0
0 0 0 0 0 0 0 0 0 0 0 0 0 0 0 0 0 0 0 0 0 0 0 0 0 0 0 0 0 0 0 0 0 0 0 0 0 0 0 0 0 0 0 0
0 0 0 0 0 0 0 0 0 0 0 0 0 0 0 0 0 0 0 0 0 0 0 0 0 0 0 0 0 0 0 0 0 0 0 0 0 0 0 0 0 0 0 0
0 0 0 0 0 0 0 0 0 0 0 0 0 0 0 0 0 0 0 0 0 0 0 0 0 0 0 0 0 0 0 0 0 0 0 0 0 0 0 0 0 0 0 0
0 0 0 0 0 0 0 0 0 0 0 0 0 0 0 0 0 0 0 0 0 0 0 0 0 0 0 0 0 0 0 0 0 0 0 0 0 0 0 0 0 0 0 0
0 0 0 0 0 0 0 0 0 0 0 0 0 0 0 0 0 0 0 0 0 0 0 0 0 0 0 0 0 0 0 0 0 0 0 0 0 0 0 0 0 0 0 0
0 0 0 0 0 0 0 0 0 0 0 0 0 0 0 0 0 0 0 0 0 0 0 0 0 0 0 0 0 0 0 0 0 0 0 0 0 0 0 0 0 0 0 0
0 0 0 0 0 0 0 0 0 0 0 0 0 0 0 0 0 0 0 0 0 0 0 0 0 0 0 0 0 0 0 0 0 0 0 0 0 0 0 0 0 0 0 0
0 0 0 0 0 0 0 0 0 0 0 0 0 0 0 0 0 0 0 0 0 0 0 0 0 0 0 0 0 0 0 0 0 0 0 0 0 0 0 0 0 0 0 0
0 0 0 0 0 0 0 0 0 0 0 0 0 0 0 0 0 0 0 0 0 0 0 0 0 0 0 0 0 0 0 0 0 0 0 0 0 0 0 0 0 0 0 0
0 0 0 0 0 0 0 0 0 0 0 0 0 0 0 0 0 0 0 0 0 0 0 0 0 0 0 0 0 0 0 0 0 0 0 0 0 0 0 0 0 0 0 0
0 0 0 0 0 0 0 0 0 0 0 0 0 0 0 0 0 0 0 0 0 0 0 0 0 0 0 0 0 0 0 0 0 0 0 0 0 0 0 0 0 0 0 0
0 0 0 0 0 0 0 0 0 0 0 0 0 0 0 0 0 0 0 0 0 0 0 0 0 0 0 0 0 0 0 0 0 0 0 0 0 0 0 0 0 0 0 0
0 0 0 0 0 0 0 0 0 0 0 0 0 0 0 0 0 0 0 0 0 0 0 0 0 0 0 0 0 0 0 0 0 0 0 0 0 0 0 0 0 0 0 0
0 0 0 0 0 0 0 0 0 0 0 0 0 0 0 0 0 0 0 0 0 0 0 0 0 0 0 0 0 0 0 0 0 0 0 0 0 0 0 0 0 0 0 0
0 0 0 0 0 0 0 0 0 0 0 0 0 0 0 0 0 0 0 0 0 0 0 0 0 0 0 0 0 0 0 0 0 0 0 0 0 0 0 0 0 0 0 0
0 0 0 0 0 0 0 0 0 0 0 0 0 0 0 0 0 0 0 0 0 0 0 0 0 0 0 0 0 0 0 0 0 0 0 0 0 0 0 0 0 0 0 0
0 0 0 0 0 0 0 0 0 0 0 0 0 0 0 0 0 0 0 0 0 0 0 0 0 0 0 0 0 0 0 0 0 0 0 0 0 0 0 0 0 0 0 0
Wind_Speed
15 6 8 11 14 18 22 23 18 21 24 20 11 12 10 7 6 8 10 13 17 17 16 15 15 16 16 16 15 15 15 16 15 13 12 11 12 12 11 11 11 10 9 8
16 13 9 8 14 21 25 20 24 24 33 14 8 10 11 11 11 12 14 17 18 18 17 18 19 19 18 18 17 16 17 15 12 12 12 12 12 12 11 10 9 9 10 10
15 12 8 20 28 20 15 15 14 26 36 10 10 14 18 17 14 16 17 19 19 21 21 21 21 20 21 18 15 15 14 12 12 13 13 13 12 12 12 12 10 10 10 10
7 10 22 20 13 20 24 24 21 21 19 11 17 18 16 12 13 16 17 17 17 17 19 18 16 15 13 12 14 15 13 13 13 13 13 12 12 13 12 9 10 10 10 11
9 17 15 13 8 14 19 25 27 28 27 21 12 8 14 11 14 17 16 16 16 17 16 14 15 15 14 14 14 15 15 15 14 14 14 13 14 13 10 9 10 10 8 10
13 12 13 12 6 9 12 19 15 18 25 23 9 11 19 8 11 12 10 9 9 8 8 11 13 15 16 15 16 18 17 15 13 13 14 15 14 11 8 9 10 9 8 9
20 16 10 7 4 10 13 13 3 10 14 12 12 16 7 1 3 4 5 4 6 8 9 10 13 16 16 15 17 15 11 11 12 13 13 12 10 8 8 8 7 8 8 7
11 13 12 6 9 12 7 1 1 1 3 5 6 3 1 1 1 2 2 2 4 6 6 7 11 14 14 14 11 9 10 11 11 11 10 9 10 9 8 9 9 8 7 6
8 7 3 5 6 3 2 2 1 1 1 1 1 0 1 2 2 3 4 4 4 7 7 6 7 10 11 8 9 10 10 10 9 9 8 8 10 10 8 8 7 7 7 8
4 5 2 2 1 1 1 2 1 1 1 1 2 2 2 2 3 3 4 4 4 7 8 5 4 5 6 8 9 10 10 9 8 8 7 6 6 7 8 8 8 7 7 7
5 2 2 4 5 3 2 2 2 2 1 1 3 2 2 3 3 3 3 3 4 6 6 6 5 6 6 7 8 8 8 7 7 6 7 6 6 5 7 6 7 8 6 5
6 5 5 4 4 6 6 4 3 2 2 2 2 3 3 3 3 3 3 4 5 5 6 6 6 6 4 4 6 8 7 6 5 5 5 5 5 2 5 6 8 9 8 7
2 2 3 1 2 4 5 5 4 3 3 3 3 3 4 3 3 4 4 4 4 5 5 6 6 5 3 2 4 6 6 6 5 5 5 5 5 5 4 3 5 6 7 7
2 3 3 2 2 3 5 5 5 5 5 4 4 4 5 5 5 6 4 4 5 6 6 6 6 5 4 2 3 4 4 5 5 4 4 5 5 4 4 4 3 1 1 2
3 2 4 5 6 5 5 6 7 5 5 5 5 5 5 6 6 5 5 5 7 7 6 5 6 4 5 3 3 4 4 3 3 3 4 4 4 4 3 3 3 2 1 2
2 5 7 7 7 6 6 5 6 5 4 4 5 5 6 8 8 7 7 6 6 6 5 5 5 4 4 4 4 4 3 5 4 4 4 4 4 4 4 3 3 2 2 1
3 4 4 5 5 6 5 5 5 5 5 5 4 5 7 8 8 8 7 8 8 7 6 5 4 3 4 4 4 4 4 4 5 4 4 4 4 4 4 3 3 2 1 2
5 5 4 4 4 6 6 6 6 6 5 4 4 6 7 6 6 5 5 5 7 8 7 5 3 4 5 4 4 3 4 4 4 4 4 3 3 3 3 3 3 2 1 1
7 7 8 8 7 7 6 6 5 5 5 5 7 8 7 7 6 5 4 5 6 5 4 4 5 6 4 4 4 4 4 4 4 4 3 4 4 3 3 2 2 1 1 1
7 7 8 9 9 7 6 5 5 6 6 6 7 8 8 7 6 6 6 6 4 2 1 3 4 4 4 4 5 3 4 4 4 3 3 3 3 2 2 2 2 2 2 2
6 7 7 8 8 8 7 5 6 7 7 7 8 8 7 5 5 4 4 4 3 3 2 3 3 2 2 3 4 3 3 3 3 2 2 2 2 2 2 2 2 2 3 3
5 6 7 7 8 8 7 6 6 7 8 8 8 7 7 6 5 5 5 2 0 1 2 2 1 1 2 2 2 2 2 2 2 1 1 2 2 2 2 3 3 3 3 4
5 6 7 7 7 7 7 7 7 7 7 7 6 6 5 4 3 3 2 1 1 1 1 1 0 1 2 1 1 1 1 1 1 2 2 2 3 3 3 4 4 4 4 4
7 7 6 5 6 8 8 6 6 5 6 6 5 5 4 3 3 3 2 1 2 2 1 2 2 1 2 1 1 1 2 2 2 2 3 3 3 3 4 4 4 4 5 5
7 7 7 7 7 6 5 5 5 6 6 5 5 5 4 3 1 1 2 2 3 2 2 3 4 2 0 1 2 2 3 3 3 3 3 4 4 4 4 4 5 5 5 5
7 7 6 6 5 4 4 4 4 3 3 3 3 4 3 3 2 2 2 2 3 3 2 2 3 2 2 2 3 4 4 4 4 4 5 5 5 5 5 5 7 6 6 6
8 6 5 6 6 5 4 4 4 3 3 3 2 3 3 3 3 3 3 3 3 3 3 3 3 3 3 4 4 4 4 4 5 5 5 5 5 5 6 7 6 6 6 6
Wind_Direction
239 210 177 197 205 206 211 221 230 246 251 246 218 236 246 239 211 196 196 197 198 199 197 193 192 192 190 187 183 181 181 184 186 179 173 169 170 172 171 174 176 174 171 172
240 226 206 221 226 218 220 228 237 252 258 249 222 230 241 232 213 209 209 209 208 203 198 196 195 194 191 190 186 183 187 189 179 173 173 175 175 173 175 177 175 174 179 179
240 223 213 235 230 217 218 220 217 239 253 247 228 227 234 232 219 216 216 214 209 205 203 201 198 193 193 190 180 183 186 180 176 176 179 180 176 176 182 182 178 183 187 188
231 212 230 240 221 207 222 232 227 239 253 236 228 237 240 230 220 224 222 219 213 208 206 202 193 188 181 171 174 181 183 181 179 179 181 177 177 185 187 181 186 190 194 197
225 239 250 262 215 190 208 237 230 234 248 251 245 277 268 238 226 229 223 218 214 208 202 189 183 175 165 169 173 180 187 187 184 181 180 180 187 191 187 183 192 196 194 198
226 232 231 243 206 177 174 243 234 217 238 247 230 244 260 240 226 233 229 219 208 188 171 170 169 159 164 173 179 190 192 188 181 181 184 188 193 188 183 188 196 195 203 205
232 240 243 246 163 131 178 236 218 204 227 235 214 230 268 334 249 237 228 210 174 160 165 168 158 160 171 177 191 191 177 170 174 183 188 188 184 180 180 186 187 195 208 210
224 236 240 182 151 181 207 116 139 215 239 231 232 260 336 357 359 40 71 96 129 138 139 141 153 160 171 186 182 155 157 168 176 181 181 178 179 180 179 182 192 201 209 221
205 223 227 171 192 192 143 153 157 213 278 183 174 144 78 74 63 60 72 78 92 116 114 121 148 160 171 169 144 148 157 168 171 171 176 176 180 179 176 182 195 204 208 225
226 242 227 219 282 251 154 152 140 121 107 126 139 132 113 105 89 78 74 77 93 111 116 115 121 129 135 133 140 146 158 162 161 166 170 170 174 176 181 188 197 204 209 222
225 243 316 262 226 199 148 115 101 79 72 104 131 136 142 133 122 111 94 80 100 115 120 119 111 103 110 128 136 142 149 151 157 164 168 172 177 187 189 195 196 200 208 204
213 201 190 223 207 177 164 167 161 133 95 68 118 136 123 118 116 115 108 100 101 102 109 109 107 100 97 119 134 139 144 154 159 160 160 161 161 164 214 196 211 221 209 200
196 172 160 105 110 148 155 156 153 142 129 106 80 97 111 105 101 99 95 98 106 109 109 109 103 89 64 90 130 145 155 158 154 156 159 162 165 173 184 210 216 223 231 233
93 127 133 116 101 110 122 123 112 88 71 73 75 81 92 92 89 85 75 73 88 91 92 97 97 75 24 39 115 133 136 147 152 158 160 163 167 169 167 169 175 220 316 289
42 76 120 105 87 79 85 99 97 86 75 62 59 73 86 95 90 72 50 65 85 81 77 84 86 52 7 32 89 110 118 125 130 131 135 139 140 140 143 150 155 151 78 3
25 73 86 92 90 79 78 88 99 91 75 67 61 62 72 86 83 65 41 40 77 80 66 73 70 26 8 49 83 85 90 107 113 119 121 124 129 135 139 142 145 151 163 181
139 122 105 103 94 82 67 62 78 81 71 61 56 75 87 90 81 65 50 45 65 67 55 61 55 24 33 59 85 93 94 99 104 106 113 122 127 134 137 140 148 155 173 226
35 58 60 89 111 105 82 58 54 54 43 34 65 78 79 84 91 86 76 74 76 64 43 34 47 48 48 57 72 85 93 95 98 106 108 110 114 117 122 130 141 154 166 283
44 56 57 56 61 82 77 62 50 44 33 56 77 76 70 69 81 86 79 72 71 67 23 360 62 63 54 65 84 80 92 97 95 94 98 108 106 107 117 131 150 177 204 233
57 63 69 66 58 63 68 59 60 56 45 66 85 84 76 67 73 80 77 69 45 35 20 39 57 56 47 56 78 83 92 101 107 109 108 114 123 133 147 168 190 210 228 241
63 69 75 77 71 58 51 52 66 67 56 62 79 86 87 76 69 74 80 74 17 19 52 62 61 55 52 67 77 86 94 103 113 123 132 141 154 175 198 214 225 233 238 245
64 74 78 78 80 68 48 49 61 71 70 69 72 80 84 76 68 64 57 77 49 35 58 55 57 71 81 78 78 89 99 113 127 142 162 181 199 217 228 234 238 243 244 246
74 80 81 78 81 81 67 55 55 64 67 66 67 68 72 68 52 70 70 22 359 57 68 39 225 156 128 106 112 127 160 190 205 210 214 218 223 229 237 244 244 245 248 250
78 77 77 77 78 78 70 55 53 57 63 62 55 53 61 65 41 25 44 39 18 30 14 293 272 250 159 162 199 218 228 234 237 237 237 238 237 238 242 247 251 251 250 253
77 74 70 70 69 67 70 70 62 52 53 48 38 31 29 35 59 10 4 1 353 1 338 324 326 337 11 239 241 243 243 242 243 242 241 244 245 244 245 246 248 252 251 250
73 71 66 61 59 54 51 56 60 45 41 39 21 9 6 5 11 2 347 335 325 316 304 299 300 299 276 261 255 253 252 254 255 249 244 246 247 247 247 247 249 248 249 249
67 61 59 54 41 35 38 45 50 35 22 23 4 347 347 347 347 344 336 324 313 302 292 285 278 269 263 259 257 256 254 253 251 251 250 249 248 248 250 250 249 248 249 251